Simultaneous Nadir Overpasses (SNOs) Predictions

Prediction of SNOs between LANDSAT-8 and METOP-B Satellite Orbit:

Table of predicted SNOs for the next 14.0 days since TLE Epoch: 1/16/2021
Index Date (LANDSAT-8) Time (LANDSAT-8) Lat,Lon (LANDSAT-8) SZA (LANDSAT-8 ) Date (METOP-B) Time (METOP-B) Lat,Lon (METOP-B) SZA (METOP-B ) Distance(km) Time Diff (sec)
1 01/16/2021 19:22:20 -81.10, 108.92 76.45 01/16/2021 19:21:15 -81.11, 109.04 76.46 2.09 65
2 01/16/2021 20:11:45 81.13, -82.98 103.61 01/16/2021 20:11:54 81.13, -82.96 103.62 0.45 9
3 01/19/2021 14:56:32 -81.12, 175.61 77.01 01/19/2021 14:55:38 -81.11, 175.44 77.06 3.15 54
4 01/19/2021 15:45:58 81.12, -16.68 102.99 01/19/2021 15:46:17 81.13, -16.60 103.01 1.54 19
5 01/22/2021 10:30:46 -81.11,-118.10 77.68 01/22/2021 10:30:02 -81.11,-118.17 77.70 1.30 44
6 01/22/2021 11:20:11 81.14, 49.95 102.38 01/22/2021 11:20:40 81.14, 50.11 102.41 2.77 29
7 01/25/2021 06:04:59 -81.12, -51.48 78.34 01/25/2021 06:04:25 -81.12, -51.43 78.35 0.91 34
8 01/25/2021 06:54:24 81.15, 116.55 101.71 01/25/2021 06:55:04 81.14, 116.43 101.71 2.18 40
9 01/28/2021 01:39:12 -81.11, 14.74 79.11 01/28/2021 01:38:49 -81.11, 14.55 79.13 3.19 23



Historial Predications of SNOs between LANDSAT-8 and METOP-B
